This is the latest recevied weather packets stored in our database for station/object KG5TTF. If no packets are shown the sender has not sent any weather packets the latest 10 day(s).
| Time | Temp. | Humidity | Pressure | Rain* | Wind** | Luminosity | Snow |
|---|---|---|---|---|---|---|---|
| 1777339553 | 6.67° C | 82% | 1016.9 hPa | 0 mm | - | 18 W/m² | - |
| 1777339250 | 6.67° C | 81% | 1017 hPa | 0 mm | - | 29 W/m² | - |
| 1777338948 | 6.67° C | 81% | 1016.9 hPa | 0 mm | - | 41 W/m² | - |
| 1777338644 | 6.67° C | 81% | 1016.9 hPa | 0 mm | - | 60 W/m² | - |
| 1777338342 | 7.22° C | 80% | 1016.8 hPa | 0 mm | - | 84 W/m² | - |
| 1777338038 | 6.67° C | 80% | 1017.1 hPa | 0 mm | - | 80 W/m² | - |
| 1777337734 | 6.67° C | 80% | 1017 hPa | 0 mm | - | 68 W/m² | - |
| 1777337432 | 6.67° C | 79% | 1016.9 hPa | 0 mm | - | 36 W/m² | - |
| 1777337129 | 6.67° C | 79% | 1017.1 hPa | 0 mm | - | 22 W/m² | - |
| 1777336826 | 6.67° C | 79% | 1016.9 hPa | 0 mm | - | 15 W/m² | - |
| 1777336526 | 7.22° C | 78% | 1016.9 hPa | 0 mm | - | 27 W/m² | - |
| 1777336223 | 7.22° C | 78% | 1016.9 hPa | 0 mm | - | 59 W/m² | - |
| 1777335920 | 7.22° C | 78% | 1016.5 hPa | 0 mm | - | 80 W/m² | - |
| 1777335617 | 7.22° C | 79% | 1016.9 hPa | 0 mm | - | 79 W/m² | - |
| 1777335314 | 7.22° C | 79% | 1016.6 hPa | 0 mm | - | 56 W/m² | - |
| 1777335012 | 7.22° C | 78% | 1016.6 hPa | 0 mm | - | 37 W/m² | - |
| 1777334708 | 7.22° C | 78% | 1016.6 hPa | 0 mm | - | 35 W/m² | - |
| 1777334406 | 7.22° C | 78% | 1016.4 hPa | 0 mm | - | 52 W/m² | - |
| 1777334102 | 7.22° C | 78% | 1016.3 hPa | 0 mm | - | 63 W/m² | - |
| 1777333802 | 7.78° C | 78% | 1016.3 hPa | 0 mm | - | 79 W/m² | - |
| 1777333499 | 7.78° C | 78% | 1016.1 hPa | 0 mm | - | 103 W/m² | - |
| 1777333196 | 7.78° C | 78% | 1016 hPa | 0 mm | - | 119 W/m² | - |
| 1777332894 | 8.33° C | 78% | 1016.5 hPa | 0 mm | - | 101 W/m² | - |
| 1777332591 | 8.33° C | 79% | 1016.3 hPa | 0 mm | - | 216 W/m² | - |
| 1777332288 | 7.78° C | 79% | 1016.6 hPa | 0 mm | - | 300 W/m² | - |
* Rain latest hour (hover to see other rain measurements)
** Current wind speed in m/s (hover to see current wind gust speed)